OneWeb SL0192

operational
NORAD ID: 48222 Int'l Des: 2021-031 Owner: ONEWEBN Country: UK Constellation: oneweb
LEOCIRCULARPOLARONEWEB_TYPE

About OneWeb SL0192

Description loading...

Live Position

Loading 3D Globe...

Upcoming Passes

Altitude History

Altitude vs Time

uPlot chart will show altitude changes over time

Two-Line Element Set

1 48222U 21031N 26034.27670306 -.00000114 00000-0 -34175-3 0 9992
2 48222 87.9019 316.4131 0001670 80.9930 279.1389 13.14503079230586
Epoch: Feb 3, 2026 • Age: 12 hours

Current Status

Altitude 1235.5 km
Velocity 7.24 km/s
Sub-Earth Point -82.99°S, 119.98°W
Launch Date Apr 25, 2021
Age 4.7 years
Type internet

Technical Details

Classification Payload
Mass 148.00 kg
Dry Mass 140.00 kg
Total Mass 148.00 kg
Length 1.30 m
Diameter 1.00 m
Span 5.00 m
Shape Trapezoid+2 pan
Manufacturer ONEWUS
Bus Type ARROW
Phase Status In Orbit
Owner/State ONEWEBN/UK

Large Constellations

Loading constellations...